Location: ????????
(55.0559°N, 39.1270°E)
Time: 01:39:54
(UTC+00:00)

Cosmos 1441 Rocket - Pass Details

Date: 15 November 2025
Orbit: 424 x 448 km, 81.1° (Epoch: 12 December)

Event Time Altitude Azimuth Distance (km) Brightness Sun altitude
Rises 03:37:10 0° 179° (S) 2,393 6.8 -11.1°
Reaches altitude 10° 03:39:14 10° 173° (S) 1,527 5.9 -10.8°
Maximum altitude 03:42:27 47° 99° (E) 578 4.0 -10.3°
Drops below altitude 10° 03:45:40 10° 24° (NNE) 1,533 5.7 -9.9°
Sets 03:47:45 0° 19° (NNE) 2,403 6.6 -9.6°
